Tracking 34794 objects as of 19-Jul-2026
HD Live streaming from Space Station
objects crossing your sky now

STARLINK-11339

Track STARLINK-11339 now!
10-day predictions
STARLINK-11339 is classified as:


NORAD ID: 61691
Int'l Code: 2024-195E
Perigee: 366.2 km
Apogee: 367.5 km
Inclination: 53.2 °
Period: 91.7 minutes
Semi major axis: 6737 km
RCS: Unknown
Launch date: October 30, 2024
Source: United States (US)
Launch site: AIR FORCE WESTERN TEST RANGE (AFWTR)
Your satellite tracking list
Your tracking list is empty




NASA's NSSDC Master Catalog

Two Line Element Set (TLE):
1 61691U 24195E   26199.91825784  .00000353  00000-0  77742-5 0  9998
2 61691  53.1592  99.4162 0000994  80.3852 279.7278 15.69709202 99640
Source of the keplerian elements: AFSPC